Voltar ao catálogo

FENGYUN 1C DEB

LostSSO
NORAD 31671·DEBRIS·🇨🇳 China

Lançado May 10, 1999 de Taiyuan Satellite Launch Center

Loading…

Próximas Passagens (próximas 24 horas)

TLE

ObsoletoSource: Space-Track

Época: Apr 16, 2011, 06:54 UTC

1 31671U 99025CCD 11106.28784769  .00000788  00000-0  53306-3 0  9996
2 31671  99.1906 122.5605 0101331 133.2425 228.3225 14.00829917204746

Acompanhe FENGYUN 1C DEB em tempo real com AllMySat

Download on the App Store